This is the latest recevied weather packets stored in our database for station/object WX5HOT. If no packets are shown the sender has not sent any weather packets the latest 10 day(s).
| Time | Temp. | Humidity | Pressure | Rain* | Wind** | Luminosity | Snow |
|---|---|---|---|---|---|---|---|
| 1777832689 | 21.67° C | 44% | 1069.8 hPa | 0 mm | - | 90 W/m² | - |
| 1777832386 | 21.11° C | 45% | 1070 hPa | 0 mm | - | 88 W/m² | - |
| 1777832084 | 21.11° C | 44% | 1069.9 hPa | 0 mm | - | 90 W/m² | - |
| 1777831779 | 20.56° C | 45% | 1069.9 hPa | 0 mm | - | 915 W/m² | - |
| 1777831478 | 20.56° C | 45% | 1070.1 hPa | 0 mm | - | 951 W/m² | - |
| 1777831174 | 20.56° C | 45% | 1070.1 hPa | 0 mm | - | 111 W/m² | - |
| 1777830872 | 20.56° C | 43% | 1070.4 hPa | 0 mm | - | 955 W/m² | - |
| 1777830568 | 20.56° C | 43% | 1070.1 hPa | 0 mm | - | 955 W/m² | - |
| 1777830266 | 20.56° C | 44% | 1070.2 hPa | 0 mm | - | 953 W/m² | - |
| 1777829966 | 20° C | 44% | 1070.4 hPa | 0 mm | - | 199 W/m² | - |
| 1777829663 | 20° C | 45% | 1070.3 hPa | 0 mm | - | 946 W/m² | - |
| 1777829360 | 20° C | 44% | 1070.4 hPa | 0 mm | - | 945 W/m² | - |
| 1777829057 | 20° C | 44% | 1070.6 hPa | 0 mm | - | 580 W/m² | - |
| 1777828753 | 20° C | 45% | 1070.7 hPa | 0 mm | - | 312 W/m² | - |
| 1777828450 | 20° C | 44% | 1070.7 hPa | 0 mm | - | 938 W/m² | - |
| 1777828147 | 19.44° C | 46% | 1070.7 hPa | 0 mm | - | 933 W/m² | - |
| 1777827843 | 19.44° C | 45% | 1070.9 hPa | 0 mm | - | 930 W/m² | - |
| 1777827540 | 19.44° C | 47% | 1070.8 hPa | 0 mm | - | 925 W/m² | - |
| 1777827238 | 18.89° C | 46% | 1070.9 hPa | 0 mm | - | 919 W/m² | - |
| 1777826934 | 18.89° C | 47% | 1071 hPa | 0 mm | - | 912 W/m² | - |
| 1777826632 | 18.89° C | 45% | 1070.8 hPa | 0 mm | - | 905 W/m² | - |
| 1777826327 | 18.89° C | 46% | 1070.9 hPa | 0 mm | - | 896 W/m² | - |
| 1777826026 | 18.33° C | 46% | 1071.1 hPa | 0 mm | - | 889 W/m² | - |
| 1777825722 | 18.33° C | 46% | 1071 hPa | 0 mm | - | 85 W/m² | - |
| 1777825420 | 18.33° C | 45% | 1071.1 hPa | 0 mm | - | 795 W/m² | - |
* Rain latest hour (hover to see other rain measurements)
** Current wind speed in m/s (hover to see current wind gust speed)